Weather History for Sexton Summit, OR

Change the Weather History Date:

Wednesday, December 12, 2012

  Actual Average Record
Temperature  
Mean Temperature 29 °F -  
Max Temperature 32 °F 39 °F 55 °F (2004)
Min Temperature 26 °F 31 °F 24 °F (2008)
Degree Days  
Heating Degree Days 36    
Moisture  
Dew Point 28 °F    
Average Humidity 94    
Maximum Humidity 100    
Minimum Humidity 86    
Precipitation  
Precipitation 0.02 in - - ()
Sea Level Pressure  
Sea Level Pressure 29.81 in    
Wind  
Wind Speed 3 mph (NNW)    
Max Wind Speed 7 mph    
Max Gust Speed -    
Visibility 5 miles    
Events Fog , Snow    
Averages and records for this station are not official NWS values.
T = Trace of Precipitation, MM = Missing Value Source: NWS Daily Summary

Daily Weather History Graph

Daily Weather History Graph

Search for Another Location

Airport:

Trip Planner

Search our weather history database for the weather conditions in past years. The results will help you decide how hot, cold, wet, or windy it might be!

Date:

Astronomy

Dec. 12, 2012 Rise Set
Actual Time 7:34 AM PST 4:40 PM PST
Civil Twilight 7:02 AM PST 5:12 PM PST
Nautical Twilight 6:27 AM PST 5:47 PM PST
Astronomical Twilight 5:52 AM PST 6:22 PM PST
Moon 6:44 AM PST (12/12) 4:23 PM PST (12/12)
Length of Visible Light 10h 09m
Length of Day
9h 05m
Waning Crescent, 0% of the Moon is Illuminated
Dec 12
Waning Crescent
Dec 13
New
Dec 19
First Quarter
Dec 28
Full
Jan 4
Last Quarter

Hourly Weather History & Observations

Time (PST) Temp. Windchill Dew Point Humidity Pressure Visibility Wind Dir Wind Speed Gust Speed Precip Events Conditions
12:08 AM 30.2 °F 26.7 °F 28.4 °F 93% 29.70 in 1.2 mi NNW 3.5 mph - N/A   Overcast
12:23 AM 30.2 °F 24.3 °F 28.4 °F 93% 29.70 in 0.8 mi NW 5.8 mph - 0.00 in   Overcast
12:33 AM 30.2 °F 26.7 °F 28.4 °F 93% 29.70 in 1.2 mi Variable 3.5 mph - 0.00 in   Overcast
12:56 AM 30.0 °F 25.2 °F 28.9 °F 96% 29.75 in 1.5 mi Variable 4.6 mph - 0.00 in   Overcast
12:59 AM 30.2 °F 24.3 °F 28.4 °F 93% 29.70 in 2.0 mi Variable 5.8 mph - N/A   Overcast
1:14 AM 30.2 °F 24.3 °F 28.4 °F 93% 29.70 in 1.5 mi NNW 5.8 mph - N/A   Overcast
1:22 AM 28.4 °F 22.2 °F 28.4 °F 100% 29.70 in 3.0 mi Variable 5.8 mph - N/A   Overcast
1:35 AM 30.2 °F 26.7 °F 28.4 °F 93% 29.70 in 2.0 mi Variable 3.5 mph - N/A   Overcast
1:44 AM 30.2 °F 25.4 °F 28.4 °F 93% 29.71 in 1.5 mi Variable 4.6 mph - N/A   Overcast
1:50 AM 30.2 °F - 28.4 °F 93% 29.71 in 1.2 mi Calm Calm - N/A   Overcast
1:56 AM 30.0 °F 25.2 °F 28.9 °F 96% 29.77 in 0.8 mi Variable 4.6 mph - N/A   Overcast
2:08 AM 28.4 °F 22.2 °F 28.4 °F 100% 29.71 in 1.5 mi Variable 5.8 mph - N/A   Overcast
2:15 AM 28.4 °F 22.2 °F 28.4 °F 100% 29.71 in 3.0 mi NNW 5.8 mph - N/A   Overcast
2:18 AM 28.4 °F 22.2 °F 28.4 °F 100% 29.71 in 4.0 mi Variable 5.8 mph - N/A   Overcast
2:51 AM 28.4 °F 23.3 °F 28.4 °F 100% 29.72 in 6.0 mi NNW 4.6 mph - 0.00 in   Overcast
2:56 AM 28.9 °F 25.2 °F 27.0 °F 92% 29.79 in 9.0 mi NNW 3.5 mph - 0.00 in   Overcast
3:21 AM 28.4 °F - 28.4 °F 100% 29.72 in 8.0 mi Calm Calm - N/A   Mostly Cloudy
3:37 AM 28.4 °F - 28.4 °F 100% 29.72 in 2.5 mi Calm Calm - 0.00 in   Overcast
3:43 AM 28.4 °F - 28.4 °F 100% 29.72 in 3.0 mi Calm Calm - 0.00 in   Overcast
3:56 AM 28.9 °F - 28.0 °F 96% 29.79 in 6.0 mi Calm Calm - 0.00 in   Overcast
4:28 AM 28.4 °F 23.3 °F 28.4 °F 100% 29.73 in 2.5 mi Variable 4.6 mph - 0.00 in   Overcast
4:41 AM 28.4 °F - 26.6 °F 93% 29.73 in 6.0 mi Calm Calm - 0.00 in   Overcast
4:48 AM 28.4 °F 24.6 °F 26.6 °F 93% 29.73 in 9.0 mi Variable 3.5 mph - 0.00 in   Overcast
4:56 AM 28.0 °F 24.2 °F 27.0 °F 96% 29.80 in 8.0 mi Variable 3.5 mph - 0.00 in   Overcast
5:29 AM 28.4 °F 23.3 °F 26.6 °F 93% 29.74 in 3.0 mi NNW 4.6 mph - N/A   Overcast
5:36 AM 28.4 °F 22.2 °F 26.6 °F 93% 29.74 in 2.5 mi Variable 5.8 mph - N/A   Overcast
5:45 AM 28.4 °F 22.2 °F 26.6 °F 93% 29.74 in 1.2 mi NW 5.8 mph - N/A   Overcast
5:56 AM 28.0 °F 20.8 °F 27.0 °F 96% 29.81 in 1.5 mi NNW 6.9 mph - N/A   Overcast
6:37 AM 28.4 °F 23.3 °F 26.6 °F 93% 29.75 in 2.5 mi NW 4.6 mph - N/A   Overcast
6:43 AM 28.4 °F 23.3 °F 26.6 °F 93% 29.76 in 4.0 mi NW 4.6 mph - N/A   Overcast
6:52 AM 28.4 °F 24.6 °F 26.6 °F 93% 29.76 in 5.0 mi NW 3.5 mph - N/A   Overcast
6:56 AM 28.0 °F 22.8 °F 26.1 °F 92% 29.83 in 5.0 mi NW 4.6 mph - N/A   Overcast
7:04 AM 28.4 °F 24.6 °F 26.6 °F 93% 29.76 in 2.5 mi NW 3.5 mph - N/A   Overcast
7:12 AM 28.4 °F 24.6 °F 26.6 °F 93% 29.76 in 5.0 mi NW 3.5 mph - N/A   Overcast
7:19 AM 28.4 °F 24.6 °F 26.6 °F 93% 29.76 in 7.0 mi Variable 3.5 mph - N/A   Overcast
7:24 AM 28.4 °F 24.6 °F 26.6 °F 93% 29.77 in 2.5 mi NW 3.5 mph - N/A   Overcast
7:32 AM 28.4 °F 23.3 °F 26.6 °F 93% 29.77 in 2.5 mi NNW 4.6 mph - N/A   Overcast
7:39 AM 28.4 °F - 26.6 °F 93% 29.77 in 9.0 mi Calm Calm - N/A   Mostly Cloudy
7:51 AM 26.6 °F - 24.8 °F 93% 29.77 in 10.0 mi Calm Calm - N/A   Scattered Clouds
7:56 AM 27.0 °F - 25.0 °F 92% 29.85 in 10.0 mi Calm Calm - N/A   Partly Cloudy
8:22 AM 26.6 °F - 24.8 °F 93% 29.78 in 8.0 mi Calm Calm - N/A   Partly Cloudy
8:41 AM 28.4 °F - 26.6 °F 93% 29.79 in 10.0 mi Calm Calm - N/A   Mostly Cloudy
8:52 AM 28.4 °F - 26.6 °F 93% 29.79 in 10.0 mi Calm Calm - N/A   Scattered Clouds
8:56 AM 28.0 °F - 25.0 °F 88% 29.87 in 10.0 mi Calm Calm - N/A   Scattered Clouds
9:20 AM 28.4 °F - 26.6 °F 93% 29.80 in 3.0 mi Calm Calm - N/A   Scattered Clouds
9:29 AM 28.4 °F - 26.6 °F 93% 29.80 in 5.0 mi Calm Calm - N/A   Mostly Cloudy
9:33 AM 28.4 °F - 26.6 °F 93% 29.80 in 10.0 mi Calm Calm - N/A   Scattered Clouds
9:56 AM 28.0 °F - 26.1 °F 92% 29.89 in 10.0 mi Calm Calm - N/A   Mostly Cloudy
10:15 AM 28.4 °F - 26.6 °F 93% 29.82 in 10.0 mi Calm Calm - N/A   Mostly Cloudy
10:53 AM 28.4 °F - 26.6 °F 93% 29.82 in 2.0 mi Calm Calm - N/A   Overcast
10:56 AM 28.9 °F - 27.0 °F 92% 29.89 in 0.8 mi Calm Calm - N/A   Overcast
11:05 AM 28.4 °F - 28.4 °F 100% 29.82 in 0.2 mi Calm Calm - 0.00 in Fog Light Freezing Fog
11:13 AM 28.4 °F - 26.6 °F 93% 29.82 in 1.0 mi Calm Calm - 0.00 in   Overcast
11:15 AM 28.4 °F - 28.4 °F 100% 29.82 in 3.0 mi Calm Calm - 0.00 in   Overcast
11:17 AM 30.2 °F - 28.4 °F 93% 29.82 in 1.8 mi Calm Calm - 0.00 in   Overcast
11:38 AM 30.2 °F - 28.4 °F 93% 29.82 in 1.2 mi Calm Calm - 0.00 in   Overcast
11:41 AM 30.2 °F - 28.4 °F 93% 29.81 in 2.0 mi Calm Calm - 0.00 in   Overcast
11:48 AM 30.2 °F - 28.4 °F 93% 29.82 in 10.0 mi Calm Calm - 0.00 in   Mostly Cloudy
11:56 AM 30.0 °F - 28.0 °F 92% 29.89 in 10.0 mi Calm Calm - 0.00 in   Mostly Cloudy
12:12 PM 30.2 °F - 26.6 °F 86% 29.82 in 10.0 mi Calm Calm - 0.00 in   Scattered Clouds
12:20 PM 30.2 °F - 28.4 °F 93% 29.81 in 10.0 mi Calm Calm - 0.00 in   Mostly Cloudy
12:37 PM 30.2 °F - 28.4 °F 93% 29.81 in 10.0 mi Calm Calm - 0.00 in   Overcast
12:52 PM 30.2 °F - 28.4 °F 93% 29.81 in 10.0 mi Calm Calm - 0.00 in   Mostly Cloudy
12:56 PM 30.0 °F - 27.0 °F 88% 29.89 in 10.0 mi Calm Calm - 0.00 in   Mostly Cloudy
1:03 PM 30.2 °F - 26.6 °F 86% 29.81 in 10.0 mi Calm Calm - 0.00 in   Mostly Cloudy
1:17 PM 30.2 °F - 28.4 °F 93% 29.81 in 10.0 mi Calm Calm - 0.00 in   Mostly Cloudy
1:31 PM 30.2 °F - 28.4 °F 93% 29.81 in 10.0 mi Calm Calm - 0.00 in   Mostly Cloudy
1:40 PM 30.2 °F - 28.4 °F 93% 29.81 in 10.0 mi Calm Calm - 0.00 in   Mostly Cloudy
1:56 PM 30.0 °F - 28.9 °F 96% 29.89 in 10.0 mi Calm Calm - 0.00 in   Overcast
2:10 PM 30.2 °F - 28.4 °F 93% 29.80 in 0.5 mi Calm Calm - 0.00 in Fog , Snow Light Snow
2:17 PM 30.2 °F - 30.2 °F 100% 29.80 in 0.2 mi Calm Calm - 0.00 in Fog , Snow Light Snow
2:22 PM 32.0 °F - 30.2 °F 93% 29.80 in 1.0 mi Calm Calm - 0.00 in Snow Light Snow
2:26 PM 32.0 °F - 30.2 °F 93% 29.80 in 1.5 mi Calm Calm - 0.00 in   Overcast
2:31 PM 32.0 °F - 30.2 °F 93% 29.80 in 3.0 mi Calm Calm - 0.00 in   Overcast
2:34 PM 32.0 °F - 30.2 °F 93% 29.80 in 1.5 mi Calm Calm - 0.00 in   Overcast
2:36 PM 32.0 °F - 30.2 °F 93% 29.80 in 0.8 mi Calm Calm - 0.00 in   Overcast
2:48 PM 32.0 °F - 30.2 °F 93% 29.80 in 1.5 mi Calm Calm - 0.00 in   Overcast
2:50 PM 30.2 °F - 30.2 °F 100% 29.80 in 4.0 mi Calm Calm - 0.00 in   Overcast
2:56 PM 30.9 °F - 30.0 °F 96% 29.88 in 1.0 mi Calm Calm - 0.00 in   Overcast
3:03 PM 30.2 °F - 30.2 °F 100% 29.80 in 0.5 mi Calm Calm - 0.00 in Fog Light Freezing Fog
3:12 PM 30.2 °F - 28.4 °F 93% 29.81 in 1.5 mi Calm Calm - 0.00 in Snow Light Snow
3:16 PM 30.2 °F - 28.4 °F 93% 29.81 in 3.0 mi Calm Calm - 0.00 in Snow Light Snow
3:56 PM 30.0 °F - 28.9 °F 96% 29.89 in 10.0 mi Calm Calm - 0.00 in   Overcast
4:29 PM 30.2 °F - 26.6 °F 86% 29.82 in 10.0 mi Calm Calm - 0.00 in   Scattered Clouds
4:56 PM 28.9 °F 23.9 °F 27.0 °F 92% 29.91 in 10.0 mi NW 4.6 mph - 0.00 in   Scattered Clouds
5:45 PM 28.4 °F 23.3 °F 28.4 °F 100% 29.83 in 10.0 mi NNW 4.6 mph - N/A   Mostly Cloudy
5:56 PM 28.9 °F 25.2 °F 28.0 °F 96% 29.91 in 10.0 mi NNW 3.5 mph - N/A   Overcast
6:22 PM 30.2 °F 26.7 °F 28.4 °F 93% 29.83 in 10.0 mi NNW 3.5 mph - 0.00 in   Overcast
6:41 PM 30.2 °F - 28.4 °F 93% 29.83 in 10.0 mi Calm Calm - 0.00 in   Overcast
6:56 PM 30.0 °F - 28.9 °F 96% 29.93 in 10.0 mi Calm Calm - 0.00 in   Overcast
7:07 PM 30.2 °F - 28.4 °F 93% 29.84 in 8.0 mi Calm Calm - N/A   Overcast
7:22 PM 30.2 °F - 28.4 °F 93% 29.84 in 8.0 mi Calm Calm - 0.00 in   Overcast
7:44 PM 30.2 °F - 28.4 °F 93% 29.85 in 1.8 mi Calm Calm - 0.00 in   Overcast
7:48 PM 30.2 °F - 28.4 °F 93% 29.85 in 0.8 mi Calm Calm - 0.00 in   Overcast
7:56 PM 30.0 °F - 28.0 °F 92% 29.94 in 0.8 mi Calm Calm - 0.00 in   Overcast
8:11 PM 28.4 °F - 28.4 °F 100% 29.85 in 0.5 mi Calm Calm - N/A Fog Light Freezing Fog
8:18 PM 30.2 °F - 28.4 °F 93% 29.85 in 1.0 mi Calm Calm - N/A   Overcast
8:29 PM 30.2 °F - 28.4 °F 93% 29.85 in 0.8 mi Calm Calm - N/A   Overcast
8:35 PM 30.2 °F 26.7 °F 28.4 °F 93% 29.85 in 1.8 mi North 3.5 mph - N/A   Overcast
8:37 PM 30.2 °F 26.7 °F 28.4 °F 93% 29.85 in 4.0 mi NNW 3.5 mph - 0.00 in   Overcast
8:41 PM 30.2 °F 26.7 °F 28.4 °F 93% 29.85 in 9.0 mi North 3.5 mph - 0.00 in   Overcast
8:54 PM 30.2 °F - 28.4 °F 93% 29.86 in 1.8 mi Calm Calm - 0.00 in Snow Light Snow
8:56 PM 30.0 °F - 28.9 °F 96% 29.94 in 1.2 mi Calm Calm - 0.00 in Snow Light Snow
9:21 PM 30.2 °F - 28.4 °F 93% 29.86 in 0.5 mi Calm Calm - 0.01 in Fog , Snow Snow
9:29 PM 30.2 °F - 26.6 °F 86% 29.86 in 1.5 mi Calm Calm - 0.02 in Snow Light Snow
9:32 PM 30.2 °F - 26.6 °F 86% 29.86 in 2.0 mi Calm Calm - 0.02 in Snow Light Snow
9:45 PM 28.4 °F - 26.6 °F 93% 29.86 in 1.5 mi Calm Calm - 0.02 in Snow Light Snow
9:56 PM 28.9 °F 25.2 °F 28.0 °F 96% 29.96 in 3.0 mi North 3.5 mph - 0.02 in Snow Light Snow
10:49 PM 28.4 °F 24.6 °F 26.6 °F 93% 29.88 in 2.5 mi North 3.5 mph - 0.00 in   Overcast
10:51 PM 28.4 °F 24.6 °F 28.4 °F 100% 29.88 in 1.0 mi North 3.5 mph - 0.00 in   Overcast
10:56 PM 28.9 °F 23.9 °F 28.0 °F 96% 29.97 in 0.5 mi North 4.6 mph - 0.00 in Fog Light Freezing Fog
11:03 PM 28.4 °F 23.3 °F 28.4 °F 100% 29.88 in 1.5 mi NNE 4.6 mph - 0.00 in   Overcast
11:05 PM 28.4 °F 23.3 °F 28.4 °F 100% 29.88 in 4.0 mi NNE 4.6 mph - 0.00 in   Overcast
11:33 PM 28.4 °F 24.6 °F 26.6 °F 93% 29.88 in 10.0 mi North 3.5 mph - 0.00 in   Mostly Cloudy
11:56 PM 28.9 °F 25.2 °F 28.0 °F 96% 29.96 in 10.0 mi ENE 3.5 mph - 0.00 in   Overcast